Chippewa, MI

1:23 PM EST on January 23, 2018 (GMT -0500)
Chippewa County International

Weather History for KCIU - June, 2014

Change the Weather History Date:

Sunday, June 1, 2014

  Actual Average Record
Temperature  
Mean Temperature 66 °F -  
Max Temperature 80 °F 65 °F 129 °F (2001)
Min Temperature 53 °F 41 °F 30 °F (1993)
Cooling Degree Days 2    
Growing Degree Days 16 (Base 50)    
Moisture  
Dew Point 49 °F    
Average Humidity 55    
Maximum Humidity 82    
Minimum Humidity 36    
Precipitation  
Precipitation 0.00 in - - ()
Sea Level Pressure  
Sea Level Pressure 30.01 in    
Wind  
Wind Speed 9 mph (SSE)    
Max Wind Speed 14 mph    
Max Gust Speed 22 mph    
Visibility 10 miles    
Events      
Averages and records for this station are not official NWS values.
T = Trace of Precipitation, MM = Missing Value Source: NWS Daily Summary

Daily Weather History Graph

Daily Weather History Graph

Search for Another Location

Airport or City:

Trip Planner

Search our weather history database for the weather conditions in past years. The results will help you decide how hot, cold, wet, or windy it might be!

Date:

Astronomy

Jun. 01, 2014 Rise Set
Actual Time 5:49 AM EDT 9:22 PM EDT
Civil Twilight 5:12 AM EDT 10:00 PM EDT
Nautical Twilight 4:22 AM EDT 10:50 PM EDT
Astronomical Twilight 3:16 AM EDT 11:56 PM EDT
Moon 9:27 AM EDT (6/1) No Moon Set
Length of Visible Light 16h 47m
Length of Day
15h 32m
Waxing Crescent, 14% of the Moon is Illuminated
Jun 1
Waxing Crescent
Jun 5
First Quarter
Jun 13
Full
Jun 19
Last Quarter
Jun 27
New

Hourly Weather History & Observations

Time (EDT) Temp. Heat Index Dew Point Humidity Pressure Visibility Wind Dir Wind Speed Gust Speed Precip Events Conditions
12:15 AM 57.2 °F - 41.0 °F 55% 30.13 in 10.0 mi ESE 12.7 mph - N/A   Clear
12:35 AM 57.2 °F - 42.8 °F 59% 30.13 in 10.0 mi ESE 10.4 mph - N/A   Clear
12:55 AM 57.2 °F - 42.8 °F 59% 30.12 in 10.0 mi SE 10.4 mph - N/A   Clear
1:15 AM 57.2 °F - 42.8 °F 59% 30.12 in 10.0 mi SE 11.5 mph - N/A   Clear
1:35 AM 57.2 °F - 42.8 °F 59% 30.12 in 10.0 mi SE 11.5 mph - N/A   Clear
1:55 AM 55.4 °F - 42.8 °F 63% 30.12 in 10.0 mi SE 11.5 mph - N/A   Clear
2:15 AM 55.4 °F - 42.8 °F 63% 30.11 in 10.0 mi SE 11.5 mph - N/A   Clear
2:35 AM 55.4 °F - 42.8 °F 63% 30.11 in 10.0 mi SE 11.5 mph - N/A   Clear
2:55 AM 55.4 °F - 42.8 °F 63% 30.10 in 10.0 mi SE 11.5 mph - N/A   Clear
3:15 AM 55.4 °F - 42.8 °F 63% 30.10 in 10.0 mi SE 9.2 mph - N/A   Clear
3:35 AM 55.4 °F - 42.8 °F 63% 30.10 in 10.0 mi ESE 8.1 mph - N/A   Clear
3:55 AM 55.4 °F - 42.8 °F 63% 30.10 in 10.0 mi ESE 6.9 mph - N/A   Clear
4:15 AM 55.4 °F - 42.8 °F 63% 30.10 in 10.0 mi ESE 5.8 mph - N/A   Clear
4:35 AM 53.6 °F - 42.8 °F 67% 30.09 in 10.0 mi ESE 5.8 mph - N/A   Clear
4:55 AM 53.6 °F - 44.6 °F 72% 30.09 in 10.0 mi ESE 5.8 mph - N/A   Clear
5:15 AM 53.6 °F - 44.6 °F 72% 30.09 in 10.0 mi ESE 6.9 mph - N/A   Clear
5:35 AM 55.4 °F - 44.6 °F 67% 30.08 in 10.0 mi ESE 6.9 mph - N/A   Clear
5:55 AM 53.6 °F - 44.6 °F 72% 30.08 in 10.0 mi ESE 3.5 mph - N/A   Clear
6:15 AM 53.6 °F - 46.4 °F 77% 30.09 in 10.0 mi ENE 5.8 mph - N/A   Clear
6:35 AM 53.6 °F - 46.4 °F 77% 30.09 in 10.0 mi East 5.8 mph - N/A   Clear
6:55 AM 55.4 °F - 46.4 °F 72% 30.08 in 10.0 mi ESE 4.6 mph - N/A   Clear
7:15 AM 55.4 °F - 48.2 °F 77% 30.08 in 10.0 mi ESE 6.9 mph - N/A   Clear
7:35 AM 57.2 °F - 48.2 °F 72% 30.08 in 10.0 mi ESE 6.9 mph - N/A   Clear
7:55 AM 60.8 °F - 48.2 °F 63% 30.08 in 10.0 mi SE 8.1 mph - N/A   Clear
8:15 AM 62.6 °F - 48.2 °F 59% 30.07 in 10.0 mi SE 9.2 mph - N/A   Clear
8:35 AM 64.4 °F - 48.2 °F 56% 30.06 in 10.0 mi SE 9.2 mph - N/A   Clear
8:55 AM 66.2 °F - 48.2 °F 52% 30.07 in 10.0 mi SSE 6.9 mph - N/A   Clear
9:15 AM 68.0 °F - 48.2 °F 49% 30.06 in 10.0 mi SSE 8.1 mph - N/A   Clear
9:35 AM 69.8 °F - 48.2 °F 46% 30.06 in 10.0 mi SSE 6.9 mph - N/A   Clear
9:55 AM 71.6 °F - 48.2 °F 43% 30.05 in 10.0 mi South 10.4 mph - N/A   Clear
10:15 AM 71.6 °F - 48.2 °F 43% 30.05 in 10.0 mi South 5.8 mph - N/A   Clear
10:35 AM 75.2 °F - 50.0 °F 41% 30.05 in 10.0 mi South 9.2 mph - N/A   Clear
10:55 AM 75.2 °F - 48.2 °F 38% 30.05 in 10.0 mi SSW 6.9 mph - N/A   Clear
11:15 AM 75.2 °F - 48.2 °F 38% 30.05 in 10.0 mi South 13.8 mph 21.9 mph N/A   Clear
11:35 AM 75.2 °F - 50.0 °F 41% 30.03 in 10.0 mi South 12.7 mph 19.6 mph N/A   Clear
11:55 AM 77.0 °F - 50.0 °F 39% 30.03 in 10.0 mi South 10.4 mph 18.4 mph N/A   Clear
12:15 PM 75.2 °F - 50.0 °F 41% 30.03 in 10.0 mi South 11.5 mph 17.3 mph N/A   Clear
12:35 PM 75.2 °F - 51.8 °F 44% 30.03 in 10.0 mi South 9.2 mph - N/A   Clear
12:55 PM 78.8 °F - 50.0 °F 36% 30.03 in 10.0 mi SSW 11.5 mph 16.1 mph N/A   Clear
1:15 PM 78.8 °F - 51.8 °F 39% 30.02 in 10.0 mi WSW 6.9 mph - N/A   Clear
1:35 PM 78.8 °F - 50.0 °F 36% 30.02 in 10.0 mi South 5.8 mph 17.3 mph N/A   Clear
1:55 PM 78.8 °F - 51.8 °F 39% 30.01 in 10.0 mi South 8.1 mph 21.9 mph N/A   Clear
2:15 PM 78.8 °F - 51.8 °F 39% 30.00 in 10.0 mi SSW 10.4 mph 17.3 mph N/A   Scattered Clouds
2:35 PM 78.8 °F - 51.8 °F 39% 29.99 in 10.0 mi South 13.8 mph 20.7 mph N/A   Mostly Cloudy
2:55 PM 80.6 °F - 51.8 °F 37% 29.99 in 10.0 mi SSW 10.4 mph 17.3 mph N/A   Partly Cloudy
3:15 PM 78.8 °F - 51.8 °F 39% 29.98 in 10.0 mi SSW 9.2 mph 16.1 mph N/A   Mostly Cloudy
3:35 PM 80.6 °F - 51.8 °F 37% 29.96 in 10.0 mi SW 10.4 mph 17.3 mph N/A   Scattered Clouds
3:55 PM 80.6 °F - 51.8 °F 37% 29.95 in 10.0 mi SSW 11.5 mph 17.3 mph N/A   Mostly Cloudy
4:15 PM 80.6 °F - 51.8 °F 37% 29.95 in 10.0 mi South 11.5 mph 19.6 mph N/A   Mostly Cloudy
4:35 PM 80.6 °F - 51.8 °F 37% 29.94 in 10.0 mi SSW 8.1 mph 21.9 mph N/A   Mostly Cloudy
4:55 PM 80.6 °F - 51.8 °F 37% 29.93 in 10.0 mi SSW 8.1 mph 16.1 mph N/A   Partly Cloudy
5:15 PM 80.6 °F - 51.8 °F 37% 29.92 in 10.0 mi SSW 10.4 mph 16.1 mph N/A   Clear
5:35 PM 80.6 °F 80.3 °F 53.6 °F 39% 29.91 in 10.0 mi SSW 9.2 mph - N/A   Clear
5:55 PM 80.6 °F 80.3 °F 53.6 °F 39% 29.90 in 10.0 mi SSW 8.1 mph - N/A   Partly Cloudy
6:15 PM 78.8 °F - 53.6 °F 42% 29.90 in 10.0 mi SSW 5.8 mph - N/A   Mostly Cloudy
6:35 PM 77.0 °F - 53.6 °F 44% 29.91 in 10.0 mi South 5.8 mph - N/A   Overcast
6:55 PM 75.2 °F - 53.6 °F 47% 29.91 in 10.0 mi South 4.6 mph - N/A   Overcast
7:15 PM 75.2 °F - 55.4 °F 50% 29.90 in 10.0 mi SE 9.2 mph - N/A   Overcast
7:35 PM 73.4 °F - 55.4 °F 53% 29.89 in 10.0 mi SE 6.9 mph - N/A   Overcast
7:55 PM 73.4 °F - 55.4 °F 53% 29.90 in 10.0 mi SSE 4.6 mph - N/A   Overcast
8:15 PM 73.4 °F - 55.4 °F 53% 29.89 in 10.0 mi SSE 4.6 mph - N/A   Mostly Cloudy
8:35 PM 71.6 °F - 55.4 °F 57% 29.90 in 10.0 mi East 6.9 mph - N/A   Overcast
8:55 PM 69.8 °F - 55.4 °F 60% 29.91 in 8.0 mi SW 3.5 mph - N/A   Mostly Cloudy
9:15 PM 66.2 °F - 55.4 °F 68% 29.91 in 10.0 mi South 4.6 mph - N/A   Mostly Cloudy
9:35 PM 64.4 °F - 53.6 °F 68% 29.90 in 10.0 mi SSE 5.8 mph - N/A   Mostly Cloudy
9:55 PM 64.4 °F - 53.6 °F 68% 29.89 in 10.0 mi SSE 5.8 mph - N/A   Partly Cloudy
10:15 PM 64.4 °F - 55.4 °F 73% 29.89 in 10.0 mi SE 8.1 mph - N/A   Scattered Clouds
10:35 PM 64.4 °F - 53.6 °F 68% 29.91 in 10.0 mi SW 3.5 mph - N/A   Overcast
10:55 PM 62.6 °F - 53.6 °F 72% 29.91 in 10.0 mi Calm Calm - N/A   Overcast
11:15 PM 60.8 °F - 55.4 °F 82% 29.91 in 10.0 mi Calm Calm - N/A   Overcast
11:35 PM 60.8 °F - 55.4 °F 82% 29.90 in 10.0 mi Calm Calm - N/A   Overcast
11:55 PM 60.8 °F - 55.4 °F 82% 29.89 in 10.0 mi Calm Calm - N/A   Scattered Clouds